KI5NXU Weather Reports


Display with metric or nautical units.
time (UTC)temp
F
wind
direction
speed
MPH
gust
MPH
rain 1hr
in
rain 24hr
in
rain mn
in
humidity
%
barometer
mb
20260503005625 73 128 0.0 0.0 0.00 0.00 0.00 45 1018.0
20260503005122 73 133 0.0 0.0 0.00 0.00 0.00 43 1018.1
20260503004618 74 146 1.0 1.0 0.00 0.00 0.00 45 1017.9
20260503004117 74 148 1.0 1.0 0.00 0.00 0.00 44 1017.9
20260503003614 75 142 0.0 1.0 0.00 0.00 0.00 46 1017.9
20260503003110 75 143 1.0 1.0 0.00 0.00 0.00 44 1017.8
20260503002607 76 145 1.0 2.0 0.00 0.00 0.00 42 1018.1
20260503002104 76 138 0.0 0.0 0.00 0.00 0.00 40 1018.0
20260503001600 76 135 0.0 0.0 0.00 0.00 0.00 41 1018.0
20260503001058 77 153 2.0 2.0 0.00 0.00 0.00 39 1018.2
20260503000555 77 150 1.0 2.0 0.00 0.00 0.00 40 1018.1
20260503000052 78 139 1.0 2.0 0.00 0.00 0.00 39 1018.0
20260502235548 78 137 1.0 1.0 0.00 0.00 0.00 38 1018.2
20260502235046 79 137 0.0 1.0 0.00 0.00 0.00 36 1018.0
20260502234542 79 202 0.0 1.0 0.00 0.00 0.00 35 1018.0
20260502234040 78 139 0.0 1.0 0.00 0.00 0.00 38 1018.1
20260502233540 78 138 0.0 1.0 0.00 0.00 0.00 37 1018.1
20260502233037 77 163 1.0 2.0 0.00 0.00 0.00 35 1018.2
20260502232533 77 139 0.0 1.0 0.00 0.00 0.00 36 1018.3
20260502232031 77 149 0.0 1.0 0.00 0.00 0.00 36 1018.1
20260502231528 79 141 0.0 1.0 0.00 0.00 0.00 37 1018.1
20260502231026 77 144 0.0 1.0 0.00 0.00 0.00 36 1018.3
20260502230524 78 204 4.0 5.0 0.00 0.00 0.00 35 1018.2
20260502230022 77 202 1.0 1.0 0.00 0.00 0.00 36 1018.2
20260502225517 78 225 3.0 3.0 0.00 0.00 0.00 37 1018.1
20260502225014 77 136 0.0 1.0 0.00 0.00 0.00 36 1018.1
20260502224510 78 203 3.0 3.0 0.00 0.00 0.00 38 1018.1
20260502224008 77 145 0.0 1.0 0.00 0.00 0.00 37 1018.1
20260502223505 77 180 1.0 1.0 0.00 0.00 0.00 38 1018.2
20260502223004 77 147 0.0 1.0 0.00 0.00 0.00 38 1018.1
20260502222500 76 212 2.0 2.0 0.00 0.00 0.00 39 1018.4
20260502221956 77 222 3.0 3.0 0.00 0.00 0.00 39 1018.3
20260502221452 77 146 0.0 0.0 0.00 0.00 0.00 38 1018.2
20260502220950 76 153 0.0 1.0 0.00 0.00 0.00 39 1018.4
20260502220445 75 175 2.0 2.0 0.00 0.00 0.00 39 1018.5
20260502215942 75 216 2.0 2.0 0.00 0.00 0.00 39 1018.2
20260502215440 76 144 0.0 1.0 0.00 0.00 0.00 38 1018.4
20260502214936 77 214 2.0 2.0 0.00 0.00 0.00 38 1018.5
20260502214433 76 126 0.0 1.0 0.00 0.00 0.00 38 1018.5
20260502213931 75 144 1.0 2.0 0.00 0.00 0.00 39 1018.8
20260502213427 76 216 4.0 5.0 0.00 0.00 0.00 40 1018.6
20260502212926 76 253 3.0 3.0 0.00 0.00 0.00 40 1018.8
20260502212424 78 206 2.0 2.0 0.00 0.00 0.00 39 1018.8
20260502211921 78 193 2.0 2.0 0.00 0.00 0.00 40 1019.0
20260502211417 76 133 0.0 0.0 0.00 0.00 0.00 39 1019.1
20260502210914 75 252 1.0 1.0 0.00 0.00 0.00 39 1019.1
20260502210411 75 221 4.0 5.0 0.00 0.00 0.00 41 1019.3
20260502205908 75 219 1.0 2.0 0.00 0.00 0.00 40 1019.1
20260502205404 74 151 0.0 1.0 0.00 0.00 0.00 44 1019.5
20260502204902 75 151 1.0 1.0 0.00 0.00 0.00 45 1019.6
20260502204358 76 189 2.0 2.0 0.00 0.00 0.00 41 1019.7
20260502203856 76 223 4.0 6.0 0.00 0.00 0.00 43 1019.5
20260502203354 74 179 1.0 1.0 0.00 0.00 0.00 43 1019.7
20260502202849 75 227 7.0 8.0 0.00 0.00 0.00 41 1019.5
20260502202347 74 239 5.0 7.0 0.00 0.00 0.00 43 1019.7
20260502201844 76 222 3.0 3.0 0.00 0.00 0.00 41 1019.7
20260502201340 76 150 1.0 1.0 0.00 0.00 0.00 39 1019.8
20260502200837 75 133 3.0 3.0 0.00 0.00 0.00 40 1019.8
20260502200332 77 203 2.0 3.0 0.00 0.00 0.00 42 1019.7
20260502195831 76 63 1.0 1.0 0.00 0.00 0.00 41 1019.8
20260502195327 73 57 2.0 3.0 0.00 0.00 0.00 42 1019.6
20260502194824 75 283 5.0 7.0 0.00 0.00 0.00 45 1019.8
20260502194321 75 170 1.0 2.0 0.00 0.00 0.00 45 1020.1
20260502193816 73 8 0.0 0.0 0.00 0.00 0.00 43 1020.0
20260502193314 73 279 1.0 1.0 0.00 0.00 0.00 43 1020.0
20260502192815 74 206 5.0 7.0 0.00 0.00 0.00 42 1020.2
20260502192312 75 210 5.0 6.0 0.00 0.00 0.00 42 1020.3
20260502191809 73 195 5.0 6.0 0.00 0.00 0.00 48 1020.3
20260502191307 75 219 3.0 3.0 0.00 0.00 0.00 45 1020.2
20260502190804 73 228 3.0 3.0 0.00 0.00 0.00 46 1020.3
20260502190301 75 188 2.0 3.0 0.00 0.00 0.00 43 1020.4
20260502185756 74 215 4.0 5.0 0.00 0.00 0.00 46 1020.2
20260502185253 74 288 2.0 3.0 0.00 0.00 0.00 45 1020.3
20260502184749 74 214 3.0 3.0 0.00 0.00 0.00 44 1020.6
20260502184245 73 207 3.0 3.0 0.00 0.00 0.00 45 1020.5
20260502183742 73 291 4.0 5.0 0.00 0.00 0.00 43 1020.6
20260502183238 75 291 4.0 5.0 0.00 0.00 0.00 42 1020.6
20260502182733 75 83 0.0 0.0 0.00 0.00 0.00 41 1020.7
20260502182229 74 75 3.0 3.0 0.00 0.00 0.00 41 1020.9
20260502181726 73 46 1.0 2.0 0.00 0.00 0.00 43 1020.8
20260502181225 73 11 2.0 2.0 0.00 0.00 0.00 43 1021.1
20260502180722 74 270 1.0 2.0 0.00 0.00 0.00 44 1021.0
20260502180220 73 14 1.0 2.0 0.00 0.00 0.00 42 1021.0
20260502170144 70 220 6.0 7.0 0.00 0.00 0.00 54 1021.7
20260502164130 70 214 0.0 1.0 0.00 0.00 0.00 52 1021.6
20260502163626 69 297 3.0 3.0 0.00 0.00 0.00 54 1021.8
20260502163123 68 199 3.0 5.0 0.00 0.00 0.00 56 1021.7
20260502162620 68 195 2.0 2.0 0.00 0.00 0.00 57 1021.9
20260502162117 68 212 3.0 3.0 0.00 0.00 0.00 59 1021.8
20260502161614 68 255 2.0 3.0 0.00 0.00 0.00 62 1021.6
20260502161111 68 218 3.0 5.0 0.00 0.00 0.00 60 1021.8
20260502160609 68 264 0.0 1.0 0.00 0.00 0.00 60 1021.7
20260502160108 67 193 1.0 2.0 0.00 0.00 0.00 61 1021.7
20260502152022 65 297 0.0 1.0 0.00 0.00 0.00 70 1021.9
20260502151519 64 210 2.0 2.0 0.00 0.00 0.00 70 1021.8
20260502151016 64 194 1.0 1.0 0.00 0.00 0.00 71 1021.8
20260502150513 63 283 2.0 2.0 0.00 0.00 0.00 72 1021.6
20260502130358 55 211 2.0 2.0 0.00 0.00 0.00 85 1020.8
20260502123341 53 218 2.0 2.0 0.00 0.00 0.00 89 1020.5
20260502122838 53 221 4.0 5.0 0.00 0.00 0.00 89 1020.4
20260502122333 53 216 3.0 3.0 0.00 0.00 0.00 89 1020.5
20260502121833 53 216 3.0 3.0 0.00 0.00 0.00 89 1020.5
20260502121329 52 214 1.0 2.0 0.00 0.00 0.00 89 1020.1
20260502120826 53 210 0.0 0.0 0.00 0.00 0.00 91 1020.3
20260502120323 53 209 0.0 0.0 0.00 0.00 0.00 91 1020.1
20260502115820 52 207 0.0 0.0 0.00 0.00 0.00 92 1020.1
20260502115317 52 197 0.0 0.0 0.00 0.00 0.00 92 1020.0
20260502114814 52 212 3.0 3.0 0.00 0.00 0.00 92 1019.7
20260502114310 52 194 1.0 1.0 0.00 0.00 0.00 92 1020.1
20260502113808 51 193 0.0 0.0 0.00 0.00 0.00 92 1020.1
20260502113305 51 199 0.0 0.0 0.00 0.00 0.00 91 1019.7
20260502112803 52 213 1.0 1.0 0.00 0.00 0.00 91 1019.7
20260502112300 53 212 0.0 0.0 0.00 0.00 0.00 91 1019.7
20260502111757 52 211 3.0 3.0 0.00 0.00 0.00 91 1019.8
20260502111255 53 205 0.0 1.0 0.00 0.00 0.00 91 1019.8
20260502110752 53 211 0.0 1.0 0.00 0.00 0.00 91 1019.5
20260502110250 53 216 1.0 2.0 0.00 0.00 0.00 91 1019.3
20260502105748 53 218 2.0 2.0 0.00 0.00 0.00 90 1019.5
20260502105244 54 219 3.0 3.0 0.00 0.00 0.00 89 1019.3
20260502104742 53 219 2.0 2.0 0.00 0.00 0.00 89 1019.2
20260502104239 54 221 0.0 0.0 0.00 0.00 0.00 88 1019.1
20260502103737 55 224 0.0 0.0 0.00 0.00 0.00 87 1019.1
20260502103234 54 223 3.0 5.0 0.00 0.00 0.00 88 1019.1
20260502102731 53 210 0.0 0.0 0.00 0.00 0.00 88 1018.8
20260502102227 54 165 0.0 0.0 0.00 0.00 0.00 88 1019.0
20260502101726 53 163 0.0 0.0 0.00 0.00 0.00 89 1019.0
20260502101224 53 148 0.0 0.0 0.00 0.00 0.00 89 1018.9
20260502100721 52 144 0.0 0.0 0.00 0.00 0.00 91 1018.8
20260502100220 52 136 0.0 0.0 0.00 0.00 0.00 92 1019.0
20260502091154 50 127 0.0 0.0 0.00 0.00 0.00 92 1018.7
20260502090651 51 132 0.0 0.0 0.00 0.00 0.00 92 1018.7
20260502090148 51 119 0.0 0.0 0.00 0.00 0.00 93 1018.8
20260502071049 52 114 0.0 0.0 0.00 0.00 0.00 92 1019.0
20260502070547 52 114 0.0 0.0 0.00 0.00 0.00 92 1018.9
20260502070045 51 113 0.0 0.0 0.00 0.00 0.00 92 1018.9
20260502065543 51 112 0.0 0.0 0.00 0.00 0.00 92 1018.8
20260502065040 51 112 0.0 0.0 0.00 0.00 0.00 92 1019.0
20260502064539 51 112 0.0 0.0 0.00 0.00 0.00 92 1019.1
20260502064035 51 113 0.0 0.0 0.00 0.00 0.00 92 1019.1
20260502063533 51 114 0.0 0.0 0.00 0.00 0.00 92 1019.2
20260502063031 51 114 0.0 0.0 0.00 0.00 0.00 92 1019.1
20260502062528 51 114 0.0 0.0 0.00 0.00 0.00 92 1018.9
20260502062026 52 113 0.0 0.0 0.00 0.00 0.00 92 1018.7
20260502061524 52 113 0.0 0.0 0.00 0.00 0.00 92 1018.8
20260502061021 53 113 0.0 0.0 0.00 0.00 0.00 92 1018.9
20260502060515 53 112 0.0 0.0 0.00 0.00 0.00 92 1019.0
20260502060013 53 112 0.0 0.0 0.00 0.00 0.00 92 1018.8
20260502055510 53 112 0.0 0.0 0.00 0.00 0.00 91 1018.6
20260502055009 53 112 0.0 0.0 0.00 0.00 0.00 92 1018.6
20260502054507 52 112 0.0 0.0 0.00 0.00 0.00 91 1018.7
20260502054004 53 112 0.0 0.0 0.00 0.00 0.00 91 1018.9
20260502053501 53 112 0.0 0.0 0.00 0.00 0.00 91 1018.7
20260502052959 53 112 0.0 0.0 0.00 0.00 0.00 91 1018.8
20260502052457 53 122 0.0 0.0 0.00 0.00 0.00 91 1018.8
20260502051955 54 122 0.0 0.0 0.00 0.00 0.00 91 1018.7
20260502051452 54 122 0.0 0.0 0.00 0.00 0.00 91 1018.8
20260502050949 54 123 0.0 0.0 0.00 0.00 0.00 90 1018.7
20260502050446 54 126 0.0 0.0 0.00 0.00 0.00 90 1018.7
20260502045943 54 126 0.0 0.0 0.00 0.03 0.03 90 1018.5
20260502045440 55 136 0.0 0.0 0.00 0.03 0.03 90 1018.6
20260502044937 55 139 0.0 0.0 0.00 0.03 0.03 90 1018.5
20260502044432 55 144 0.0 0.0 0.00 0.03 0.03 90 1018.5
20260502043930 55 144 0.0 0.0 0.00 0.03 0.03 89 1018.5
20260502043427 56 144 0.0 0.0 0.00 0.03 0.03 89 1018.8
20260502042927 55 144 0.0 0.0 0.00 0.03 0.03 88 1018.5
20260502042424 55 144 0.0 0.0 0.00 0.03 0.03 89 1018.4
20260502041921 56 144 0.0 0.0 0.00 0.03 0.03 88 1018.5
20260502041419 56 144 0.0 0.0 0.00 0.03 0.03 87 1018.4
20260502040916 56 144 1.0 1.0 0.00 0.03 0.03 87 1018.3
20260502040412 55 144 0.0 0.0 0.00 0.03 0.03 88 1018.5
20260502035909 56 144 0.0 0.0 0.00 0.03 0.03 88 1018.5
20260502035405 56 144 0.0 0.0 0.00 0.03 0.03 87 1018.0
20260502034903 56 145 0.0 0.0 0.00 0.03 0.03 87 1018.4
20260502034401 56 145 0.0 1.0 0.00 0.03 0.03 87 1018.5
20260502033900 56 145 1.0 1.0 0.00 0.03 0.03 88 1018.1
20260502033357 57 145 0.0 0.0 0.00 0.03 0.03 88 1018.2
20260502032853 57 148 0.0 0.0 0.00 0.03 0.03 88 1018.2
20260502032349 56 147 1.0 1.0 0.00 0.03 0.03 89 1018.5
20260502031847 57 143 0.0 0.0 0.00 0.03 0.03 86 1018.1
20260502031345 57 144 1.0 1.0 0.00 0.03 0.03 86 1018.2
20260502030843 57 143 1.0 1.0 0.00 0.03 0.03 85 1018.2
20260502030341 57 142 0.0 0.0 0.00 0.03 0.03 86 1017.9
20260502025838 57 143 0.0 1.0 0.00 0.03 0.03 86 1018.0
20260502025336 57 142 1.0 1.0 0.00 0.03 0.03 86 1017.7
20260502024833 58 142 0.0 1.0 0.00 0.03 0.03 86 1017.6
20260502024331 58 142 1.0 1.0 0.00 0.03 0.03 85 1017.8
20260502023829 58 143 0.0 1.0 0.00 0.03 0.03 86 1018.0
20260502023326 58 144 1.0 1.0 0.00 0.03 0.03 86 1017.7
20260502022824 58 143 1.0 1.0 0.00 0.03 0.03 85 1017.6
20260502022320 58 142 1.0 1.0 0.00 0.03 0.03 84 1017.5
20260502021817 59 143 0.0 1.0 0.00 0.03 0.03 83 1017.4
20260502021314 59 144 1.0 1.0 0.00 0.03 0.03 82 1017.4
20260502020811 59 109 1.0 1.0 0.00 0.03 0.03 82 1017.3
20260502020309 59 107 0.0 1.0 0.00 0.03 0.03 82 1017.2
20260502015806 59 107 0.0 0.0 0.00 0.03 0.03 82 1017.2
20260502015305 59 107 0.0 0.0 0.00 0.03 0.03 82 1017.0
20260502014800 59 106 0.0 0.0 0.00 0.03 0.03 82 1017.1
20260502014257 59 105 0.0 0.0 0.00 0.03 0.03 82 1017.0
20260502013753 59 105 0.0 0.0 0.00 0.03 0.03 83 1017.0
20260502013249 59 105 0.0 0.0 0.00 0.03 0.03 82 1017.0
20260502012745 59 104 0.0 0.0 0.00 0.03 0.03 81 1017.1
20260502012243 60 97 0.0 0.0 0.00 0.03 0.03 81 1017.0
20260502011740 60 83 0.0 0.0 0.00 0.03 0.03 81 1016.7
20260502011236 60 83 0.0 0.0 0.00 0.03 0.03 80 1016.8
20260502010734 60 83 0.0 0.0 0.00 0.03 0.03 79 1016.3
20260502010230 61 83 0.0 0.0 0.00 0.03 0.03 77 1016.7